カタログに戻る

FENGYUN 1C DEB

LostPO
NORAD 32336·DEBRIS·🇨🇳 China

打ち上げ May 10, 1999 から Taiyuan Satellite Launch Center

Loading…

次のパス (今後24時間)

TLE

古いSource: Space-Track

元期: Apr 26, 2011, 10:22 UTC

1 32336U 99025CYD 11116.43215084  .00002109  00000-0  67324-3 0  9996
2 32336  98.9945 205.8822 0139046  32.0357 328.7671 14.35469826202863

AllMySatでFENGYUN 1C DEBをリアルタイム追跡

Download on the App Store